SCP
0 0 0 0 0 0 0 1 1 1 1 1 1 0 0 1 1 1 1 2 3 3 3 2 1 0 0 0 0 0 0 0 0 0 0 0 0 0 0 0 0 0 0
0 0 0 0 0 0 0 0 1 1 1 1 1 1 0 0 0 1 1 1 2 2 2 1 0 0 0 0 0 0 0 0 0 0 0 0 0 0 0 0 0 0 0
0 0 0 0 0 0 0 0 0 0 1 1 1 1 0 0 0 0 0 0 1 1 1 0 0 0 0 0 0 0 0 0 0 0 0 0 0 0 0 0 0 0 0
0 0 0 0 0 0 0 0 0 0 0 1 1 1 0 0 0 0 0 0 0 0 0 0 0 0 0 0 0 0 0 0 0 0 0 0 0 0 0 0 0 0 0
0 0 0 0 0 0 0 0 0 0 0 0 1 1 1 0 0 0 0 0 0 0 0 0 0 0 0 0 0 0 0 0 0 0 0 0 0 0 0 0 0 0 0
0 0 0 0 0 0 0 0 0 0 0 0 0 0 1 0 0 0 0 0 0 0 0 0 0 0 0 0 0 0 0 0 0 0 0 0 0 0 0 0 0 0 0
0 0 0 0 0 0 0 0 0 0 0 0 0 0 0 0 0 0 0 0 0 0 0 0 0 0 0 0 0 0 0 0 0 0 0 0 0 0 0 0 0 0 0
0 0 0 0 0 0 0 0 0 0 0 0 0 0 0 0 0 0 0 0 0 0 0 0 0 0 0 0 0 0 0 0 0 0 0 0 0 0 0 0 0 0 0
0 0 0 0 0 0 0 0 0 0 0 0 0 0 0 0 0 0 0 0 0 0 0 0 0 0 0 0 0 0 0 0 0 0 0 0 0 0 0 0 0 0 0
0 0 0 0 0 0 0 0 0 0 0 0 0 0 0 0 0 0 0 0 0 0 0 0 0 0 0 0 0 0 0 0 0 0 0 0 0 0 0 0 0 0 0
0 0 0 0 0 0 0 0 0 0 0 0 0 0 0 0 0 0 0 0 0 0 0 0 0 0 0 0 0 0 0 0 0 0 0 0 0 0 0 0 0 0 0
0 0 0 0 0 0 0 0 0 0 0 0 0 0 0 0 0 0 0 0 0 0 0 0 0 0 0 0 0 0 0 0 0 0 0 0 0 0 0 0 0 0 0
0 0 0 0 0 0 0 0 0 0 0 0 0 0 0 0 0 0 0 0 0 0 0 0 0 0 0 0 0 0 0 0 0 0 0 0 0 0 0 0 0 0 0
0 0 0 0 0 0 0 0 0 0 0 0 0 0 0 0 0 0 0 0 0 0 0 0 0 0 0 0 0 0 0 0 0 0 0 0 0 0 0 0 0 0 0
0 0 0 0 0 0 0 0 0 0 0 0 0 0 0 0 0 0 0 0 0 0 0 0 0 0 0 0 0 0 0 0 0 0 0 0 0 0 0 0 0 0 0
0 0 0 0 0 0 0 0 0 0 0 0 0 0 0 0 0 0 0 0 0 0 0 0 0 0 0 0 0 0 0 0 0 0 0 0 0 0 0 0 0 0 0
0 0 0 0 0 0 0 0 0 0 0 0 0 0 0 0 0 0 0 0 0 0 0 0 0 0 0 0 0 0 0 0 0 0 0 0 0 0 0 0 0 0 0
0 0 0 0 0 0 0 0 0 0 0 0 0 0 0 0 0 0 0 0 0 0 0 0 0 0 0 0 0 0 0 0 0 0 0 0 0 0 0 0 0 0 0
0 0 0 0 0 0 0 0 0 0 0 0 0 0 0 0 0 0 0 0 0 0 0 0 0 0 0 0 0 0 0 0 0 0 0 0 0 0 0 0 0 0 0
0 0 0 0 0 0 0 0 0 0 0 0 0 0 0 0 0 0 0 0 0 0 0 0 0 0 0 0 0 0 0 0 0 0 0 0 0 0 0 0 0 0 0
0 0 0 0 0 0 0 0 0 0 0 0 0 0 0 0 0 0 0 0 0 0 0 0 0 0 0 0 0 0 0 0 0 0 0 0 0 0 0 0 0 0 0
0 0 0 0 0 0 0 0 0 0 0 0 0 0 0 0 0 0 0 0 0 0 0 0 0 0 0 0 0 0 0 0 0 0 0 0 0 0 0 0 0 0 0
0 0 0 0 0 0 0 0 0 0 0 0 0 0 0 0 0 0 0 0 0 0 0 0 0 0 0 0 0 0 0 0 0 0 0 0 0 0 0 0 0 0 0
0 0 0 0 0 0 0 0 0 0 0 0 0 0 0 0 0 0 0 0 0 0 0 0 0 0 0 0 0 0 0 0 0 0 0 0 0 0 0 0 0 0 0
0 0 0 0 0 0 0 0 0 0 0 0 0 0 0 0 0 0 0 0 0 0 0 0 0 0 0 0 0 0 0 0 0 0 0 0 0 0 0 0 0 0 0
0 0 0 0 0 0 0 0 0 0 0 0 0 0 0 0 0 0 0 0 0 0 0 0 0 0 0 0 0 0 0 0 0 0 0 0 0 0 0 0 0 0 0
Wind_Speed
2 2 3 3 3 2 2 2 3 2 2 1 2 2 1 1 1 2 2 2 2 1 1 2 2 1 1 1 1 1 2 2 1 2 2 2 1 1 1 1 1 1 2
2 2 3 3 2 2 1 2 2 2 2 2 1 1 2 1 1 1 2 2 2 1 1 1 1 1 1 1 2 2 1 1 1 1 1 1 2 2 1 1 0 1 1
2 2 3 2 2 2 2 1 1 1 2 2 1 2 2 1 1 1 1 1 1 1 1 1 1 1 1 1 1 1 1 1 1 0 1 1 1 2 1 1 0 1 1
2 2 2 2 2 2 2 1 1 1 1 1 2 3 2 2 2 2 1 1 1 1 1 2 1 1 1 1 1 1 1 2 1 1 1 0 1 1 2 2 1 0 1
2 2 2 2 2 2 2 2 2 1 1 1 1 2 2 1 1 1 1 2 1 1 1 1 2 1 1 1 1 1 1 1 2 1 0 1 1 0 1 2 2 2 2
2 2 2 2 2 2 2 2 2 1 1 1 1 1 1 2 2 2 1 1 1 1 1 1 1 1 1 1 1 1 2 2 2 1 1 1 1 1 1 2 2 2 2
2 2 2 2 2 2 2 2 2 1 1 1 1 0 0 1 2 2 1 1 1 1 2 1 1 1 1 1 1 1 2 2 2 2 2 2 2 1 1 1 2 2 2
2 3 2 2 2 2 2 2 1 1 1 1 0 0 0 0 0 1 1 1 2 2 2 2 1 1 1 1 1 1 2 2 2 2 2 2 2 1 1 1 1 2 3
2 2 2 2 2 2 2 2 1 1 0 0 0 0 1 0 0 0 0 0 1 1 2 2 2 2 2 2 2 2 2 2 2 2 2 2 2 2 2 1 2 2 3
2 2 2 2 2 2 1 1 1 1 0 1 1 1 1 1 0 0 0 0 0 1 2 2 2 2 2 2 2 2 2 2 2 2 2 3 2 2 2 2 2 2 3
1 1 2 2 2 2 2 1 1 1 1 1 1 1 1 1 0 0 0 0 0 1 2 2 3 3 3 3 3 2 3 3 3 3 3 3 2 2 2 2 2 2 2
2 2 2 2 2 2 2 2 2 1 1 1 1 1 1 1 1 0 0 0 0 1 1 1 2 2 3 3 3 3 4 4 4 4 4 4 3 3 3 2 3 3 3
1 1 1 1 1 1 1 1 1 1 1 1 1 1 1 1 1 1 1 1 1 1 1 1 2 3 3 3 3 3 4 4 4 4 4 4 4 4 3 3 3 3 3
1 1 1 1 1 1 1 1 1 2 1 1 1 1 2 1 1 1 1 1 1 1 1 2 2 3 3 3 3 3 3 3 4 4 4 4 5 5 5 4 4 4 3
1 1 1 0 0 1 1 1 1 2 2 2 2 2 2 2 1 1 1 1 1 2 2 2 2 3 3 3 4 4 4 4 4 4 4 5 6 7 6 5 5 5 4
2 1 1 1 0 0 1 1 1 2 2 2 2 2 2 2 2 1 1 1 1 2 2 2 3 3 3 5 6 5 4 4 4 4 4 5 6 8 10 10 9 8 6
1 1 1 1 1 1 1 1 1 1 1 2 2 2 2 2 2 2 2 2 2 2 2 3 3 3 4 7 7 7 4 4 5 5 4 4 5 7 5 7 10 9 11
1 1 1 1 1 1 0 1 1 1 1 2 2 2 2 2 2 2 2 2 2 2 2 3 3 3 5 7 8 8 5 4 5 5 5 5 5 6 6 5 6 6 7
1 1 1 1 1 1 1 0 1 1 1 2 2 2 2 2 2 2 2 3 2 3 3 3 3 4 5 8 8 8 4 4 5 5 6 6 6 9 10 7 6 6 6
1 1 1 1 0 1 1 1 1 1 2 2 3 2 2 2 3 3 3 3 3 3 3 4 3 4 5 8 9 8 4 4 4 5 6 8 9 10 10 6 5 7 6
1 1 1 1 1 1 1 1 2 2 2 2 2 2 2 2 3 3 2 3 3 3 3 4 4 4 5 7 9 9 4 4 4 5 4 5 10 11 11 9 6 8 7
1 1 0 0 1 1 1 1 2 2 1 1 2 2 2 3 3 2 2 2 3 3 3 4 4 3 4 6 7 9 8 7 5 5 4 5 10 11 11 8 8 10 8
1 0 0 0 1 1 1 2 3 2 1 1 2 2 3 3 3 2 2 2 2 3 3 3 4 4 3 4 8 9 10 10 6 5 7 9 10 10 7 10 10 7 4
1 1 0 0 1 1 1 2 2 1 1 2 3 3 3 3 2 3 3 2 2 3 3 4 4 4 3 3 3 4 5 7 6 5 7 10 10 8 7 7 5 4 4
1 1 1 1 2 1 2 2 1 1 2 3 3 3 3 3 3 3 3 3 3 4 4 4 4 4 4 6 9 6 4 4 4 4 3 3 3 3 3 3 3 3 3
1 1 1 2 2 2 2 2 1 1 2 3 3 2 2 2 2 3 3 5 6 8 9 9 8 7 9 11 11 11 11 10 9 5 3 4 3 3 3 3 3 3 3
Wind_Direction
176 144 136 133 134 135 133 144 148 143 134 146 151 145 144 126 112 108 93 94 84 59 76 74 92 81 89 98 90 88 90 62 52 56 23 354 14 41 18 28 48 38 22
173 145 135 126 127 125 141 155 157 156 154 164 172 158 147 153 132 113 114 111 113 105 93 86 100 106 96 92 87 88 82 58 68 80 49 342 335 344 345 1 75 51 29
199 173 158 157 150 149 168 172 180 165 161 159 148 129 114 103 106 116 125 121 125 125 127 131 130 132 126 135 129 125 108 146 268 80 127 143 240 309 299 303 3 37 15
194 178 166 165 161 156 147 150 146 116 122 140 158 159 157 159 176 170 168 166 143 140 157 156 152 142 132 139 165 151 154 146 193 292 326 222 161 198 294 292 287 298 274
165 165 157 159 147 138 141 151 133 104 84 105 162 173 169 159 135 130 153 163 161 154 171 165 159 162 174 183 192 186 181 172 181 181 245 295 310 258 211 266 281 286 269
145 144 126 118 105 108 125 125 124 112 98 104 87 170 177 156 149 152 182 180 175 170 167 158 164 176 187 198 207 206 204 205 197 189 180 183 202 233 227 246 267 268 264
149 142 125 131 121 111 113 121 123 121 104 106 103 68 281 177 175 170 188 190 182 187 194 189 186 187 210 216 212 216 225 220 211 205 218 219 228 223 230 231 260 273 270
149 144 133 120 114 118 122 117 125 128 116 100 76 55 38 134 193 171 180 196 201 193 181 185 195 204 217 237 212 209 229 228 227 224 221 231 239 235 224 216 224 277 274
133 116 103 103 112 115 120 136 144 129 95 52 24 24 21 30 185 223 218 182 225 192 178 187 197 210 217 222 209 214 224 227 232 229 228 234 239 233 236 231 208 210 249
110 112 114 105 103 109 105 112 128 135 89 37 353 344 341 313 309 117 336 276 261 204 190 199 204 207 218 223 213 222 225 224 233 232 233 242 248 246 242 232 239 233 229
107 95 85 79 76 66 65 62 65 68 53 17 335 327 307 313 311 188 263 292 289 244 207 204 209 211 218 224 221 229 231 228 237 240 236 241 244 239 246 242 237 248 243
104 99 99 80 68 64 55 45 29 30 13 339 317 310 315 318 298 256 277 312 295 269 252 219 218 224 225 226 226 235 239 233 231 237 240 242 242 238 241 240 242 244 245
103 104 102 92 80 63 46 35 19 1 359 352 335 323 309 301 294 296 313 323 299 290 281 250 234 234 231 234 236 236 242 245 241 234 235 241 236 237 238 237 240 244 252
161 138 107 73 55 49 37 17 1 353 343 338 317 303 295 286 296 317 324 312 298 288 281 270 260 247 238 241 241 242 241 247 253 247 240 240 236 237 232 234 234 237 241
196 177 189 217 41 36 17 358 350 348 347 341 320 303 313 316 308 308 301 298 298 295 292 283 280 272 247 239 240 241 241 242 249 252 249 247 248 251 247 242 232 228 232
244 226 220 213 208 286 315 332 334 334 340 327 314 317 316 315 301 287 288 280 283 287 287 282 276 275 268 261 256 254 241 242 242 249 251 252 252 254 256 258 254 243 236
250 239 225 220 232 237 249 257 293 320 319 308 307 306 303 301 292 284 282 271 273 277 276 274 270 268 276 275 265 261 255 247 249 248 248 257 257 264 253 259 261 258 255
274 280 271 270 262 240 276 285 297 296 293 293 297 297 294 292 295 284 277 277 275 271 271 276 273 276 279 281 281 274 260 251 250 249 248 247 251 254 255 250 253 251 253
275 273 268 269 253 208 218 215 262 273 279 286 289 287 284 284 288 280 278 282 280 274 268 271 266 265 275 279 282 280 263 253 254 255 251 249 245 256 261 254 250 256 258
8 354 351 2 332 248 188 194 245 260 269 278 285 293 289 279 278 274 277 281 276 271 273 275 269 264 266 273 276 276 259 255 256 258 256 257 257 261 262 249 241 250 254
9 32 37 10 303 288 185 215 240 256 272 286 298 300 293 284 281 276 274 275 277 280 277 276 277 269 269 275 275 276 261 250 253 256 256 257 264 265 266 264 248 253 259
12 41 75 317 309 294 209 240 260 272 287 294 295 294 293 290 292 278 277 277 273 275 275 273 275 271 272 277 277 279 275 271 257 259 261 260 268 270 273 270 266 266 265
332 350 192 276 307 282 236 252 278 291 298 291 284 287 291 291 289 279 272 273 267 264 271 271 273 277 276 276 284 285 285 284 268 263 270 274 275 275 274 272 271 265 254
318 335 344 291 297 290 276 272 286 301 295 286 286 284 282 285 287 281 273 266 260 259 267 271 275 282 287 283 276 272 279 283 278 271 273 279 279 276 274 273 270 256 245
325 329 289 271 282 290 290 295 292 282 280 281 282 284 280 280 281 280 275 274 260 257 264 259 260 269 273 276 280 280 274 268 267 278 272 271 273 258 259 263 261 251 247
318 312 298 290 294 297 295 297 282 264 274 283 285 284 285 281 279 284 295 294 285 287 284 280 277 274 278 286 285 286 289 291 289 283 270 268 264 262 263 262 259 255 249